Weather History for Glendive, MT

Change the Weather History Date:

Friday, October 4, 2013

  Actual Average Record
Temperature  
Mean Temperature 34 °F -  
Max Temperature 41 °F 62 °F 91 °F (2011)
Min Temperature 28 °F 35 °F 26 °F (2004)
Degree Days  
Heating Degree Days 30    
Moisture  
Dew Point 30 °F    
Average Humidity 75    
Maximum Humidity 87    
Minimum Humidity 56    
Precipitation  
Precipitation 0.00 in - - ()
Sea Level Pressure  
Sea Level Pressure 30.33 in    
Wind  
Wind Speed 15 mph (North)    
Max Wind Speed 21 mph    
Max Gust Speed 25 mph    
Visibility 10 miles    
Events      
Averages and records for this station are not official NWS values.
T = Trace of Precipitation, MM = Missing Value Source: NWS Daily Summary

Daily Weather History Graph

Daily Weather History Graph

Search for Another Location

Airport:

Trip Planner

Search our weather history database for the weather conditions in past years. The results will help you decide how hot, cold, wet, or windy it might be!

Date:

Astronomy

Oct. 04, 2013 Rise Set
Actual Time 7:02 AM MDT 6:32 PM MDT
Civil Twilight 6:32 AM MDT 7:02 PM MDT
Nautical Twilight 5:56 AM MDT 7:37 PM MDT
Astronomical Twilight 5:20 AM MDT 8:13 PM MDT
Moon 6:41 AM MDT (10/4) 6:13 PM MDT (10/4)
Length of Visible Light 12h 30m
Length of Day
11h 29m
Waning Crescent, 0% of the Moon is Illuminated
Oct 4
Waning Crescent
Oct 4
New
Oct 11
First Quarter
Oct 18
Full
Oct 26
Last Quarter

Hourly Weather History & Observations

Time (MDT) Temp. Windchill Dew Point Humidity Pressure Visibility Wind Dir Wind Speed Gust Speed Precip Events Conditions
12:15 AM 41.0 °F 33.5 °F 33.8 °F 76% 30.27 in 10.0 mi North 13.8 mph 19.6 mph N/A   Mostly Cloudy
12:35 AM 39.2 °F 30.2 °F 33.8 °F 81% 30.27 in 10.0 mi North 17.3 mph 21.9 mph N/A   Partly Cloudy
12:55 AM 39.2 °F 30.5 °F 33.8 °F 81% 30.26 in 10.0 mi North 16.1 mph - N/A   Mostly Cloudy
1:15 AM 39.2 °F 31.2 °F 32.0 °F 75% 30.27 in 10.0 mi North 13.8 mph - N/A   Overcast
1:35 AM 39.2 °F 32.0 °F 32.0 °F 75% 30.28 in 10.0 mi North 11.5 mph - N/A   Overcast
1:55 AM 39.2 °F 31.6 °F 32.0 °F 75% 30.30 in 10.0 mi North 12.7 mph - N/A   Overcast
2:15 AM 39.2 °F 31.6 °F 32.0 °F 75% 30.30 in 10.0 mi North 12.7 mph - N/A   Overcast
2:35 AM 39.2 °F 31.2 °F 32.0 °F 75% 30.30 in 10.0 mi North 13.8 mph - N/A   Overcast
2:55 AM 39.2 °F 31.2 °F 32.0 °F 75% 30.29 in 10.0 mi North 13.8 mph - N/A   Overcast
3:15 AM 39.2 °F 31.2 °F 32.0 °F 75% 30.30 in 10.0 mi North 13.8 mph 18.4 mph N/A   Overcast
3:35 AM 39.2 °F 31.6 °F 33.8 °F 81% 30.30 in 10.0 mi North 12.7 mph - N/A   Overcast
3:55 AM 39.2 °F 30.8 °F 33.8 °F 81% 30.30 in 10.0 mi North 15.0 mph - N/A   Overcast
4:15 AM 39.2 °F 30.8 °F 33.8 °F 81% 30.30 in 10.0 mi North 15.0 mph - N/A   Overcast
4:35 AM 39.2 °F 30.8 °F 33.8 °F 81% 30.30 in 10.0 mi North 15.0 mph - N/A   Overcast
4:55 AM 39.2 °F 30.2 °F 33.8 °F 81% 30.29 in 10.0 mi North 17.3 mph - N/A   Overcast
5:15 AM 39.2 °F 29.6 °F 33.8 °F 81% 30.30 in 10.0 mi North 19.6 mph - N/A   Overcast
5:55 AM 37.4 °F 28.5 °F 33.8 °F 87% 30.31 in 10.0 mi North 15.0 mph 23.0 mph N/A   Overcast
6:15 AM 37.4 °F 28.2 °F 33.8 °F 87% 30.32 in 10.0 mi North 16.1 mph 21.9 mph N/A   Overcast
6:35 AM 37.4 °F 28.5 °F 33.8 °F 87% 30.33 in 10.0 mi North 15.0 mph 20.7 mph N/A   Overcast
6:55 AM 37.4 °F 27.5 °F 33.8 °F 87% 30.34 in 10.0 mi North 18.4 mph 21.9 mph N/A   Overcast
7:15 AM 37.4 °F 28.2 °F 33.8 °F 87% 30.34 in 10.0 mi North 16.1 mph - N/A   Overcast
7:35 AM 37.4 °F 28.2 °F 33.8 °F 87% 30.34 in 10.0 mi North 16.1 mph - N/A   Overcast
7:55 AM 37.4 °F 28.5 °F 33.8 °F 87% 30.34 in 10.0 mi North 15.0 mph 20.7 mph N/A   Overcast
8:15 AM 37.4 °F 27.8 °F 33.8 °F 87% 30.33 in 10.0 mi North 17.3 mph 25.3 mph N/A   Overcast
8:35 AM 37.4 °F 27.5 °F 33.8 °F 87% 30.32 in 10.0 mi North 18.4 mph - N/A   Overcast
8:55 AM 37.4 °F 28.2 °F 33.8 °F 87% 30.34 in 10.0 mi North 16.1 mph - N/A   Overcast
9:15 AM 37.4 °F 27.8 °F 33.8 °F 87% 30.35 in 10.0 mi North 17.3 mph 23.0 mph N/A   Overcast
9:35 AM 37.4 °F 27.8 °F 33.8 °F 87% 30.36 in 10.0 mi NNE 17.3 mph 21.9 mph N/A   Overcast
9:55 AM 37.4 °F 28.2 °F 33.8 °F 87% 30.37 in 8.0 mi North 16.1 mph - N/A   Overcast
10:15 AM 37.4 °F 28.5 °F 33.8 °F 87% 30.38 in 5.0 mi NNE 15.0 mph - N/A   Overcast
10:35 AM 37.4 °F 29.3 °F 33.8 °F 87% 30.38 in 4.0 mi North 12.7 mph - N/A   Overcast
10:55 AM 37.4 °F 28.2 °F 33.8 °F 87% 30.38 in 6.0 mi North 16.1 mph - N/A   Overcast
11:15 AM 37.4 °F 28.2 °F 33.8 °F 87% 30.38 in 4.0 mi North 16.1 mph 20.7 mph N/A   Overcast
11:35 AM 37.4 °F 28.2 °F 33.8 °F 87% 30.37 in 8.0 mi North 16.1 mph - N/A   Overcast
11:55 AM 37.4 °F 28.2 °F 33.8 °F 87% 30.37 in 10.0 mi North 16.1 mph - N/A   Overcast
12:15 PM 37.4 °F 28.2 °F 33.8 °F 87% 30.37 in 10.0 mi North 16.1 mph 19.6 mph N/A   Overcast
12:35 PM 37.4 °F 27.8 °F 33.8 °F 87% 30.36 in 10.0 mi North 17.3 mph 20.7 mph N/A   Overcast
12:55 PM 39.2 °F 31.2 °F 33.8 °F 81% 30.36 in 10.0 mi NNE 13.8 mph - N/A   Overcast
1:15 PM 37.4 °F 28.2 °F 33.8 °F 87% 30.36 in 10.0 mi North 16.1 mph 21.9 mph N/A   Overcast
1:35 PM 39.2 °F 31.2 °F 32.0 °F 75% 30.36 in 10.0 mi NNE 13.8 mph - N/A   Overcast
1:55 PM 39.2 °F 30.8 °F 30.2 °F 70% 30.36 in 10.0 mi North 15.0 mph 19.6 mph N/A   Overcast
2:15 PM 39.2 °F 30.5 °F 28.4 °F 65% 30.35 in 10.0 mi North 16.1 mph - N/A   Overcast
2:35 PM 39.2 °F 32.0 °F 28.4 °F 65% 30.35 in 10.0 mi North 11.5 mph - N/A   Overcast
2:55 PM 39.2 °F 30.5 °F 28.4 °F 65% 30.34 in 10.0 mi North 16.1 mph - N/A   Overcast
3:15 PM 39.2 °F 30.8 °F 26.6 °F 61% 30.34 in 10.0 mi North 15.0 mph - N/A   Overcast
3:35 PM 39.2 °F 30.5 °F 26.6 °F 61% 30.33 in 10.0 mi North 16.1 mph - N/A   Overcast
3:55 PM 39.2 °F 30.2 °F 24.8 °F 56% 30.34 in 10.0 mi North 17.3 mph 24.2 mph N/A   Scattered Clouds
4:15 PM 39.2 °F 29.6 °F 24.8 °F 56% 30.34 in 10.0 mi North 19.6 mph - N/A   Clear
4:35 PM 39.2 °F 29.8 °F 24.8 °F 56% 30.34 in 10.0 mi North 18.4 mph 25.3 mph N/A   Clear
4:55 PM 39.2 °F 29.8 °F 24.8 °F 56% 30.34 in 10.0 mi North 18.4 mph - N/A   Clear
5:15 PM 39.2 °F 29.3 °F 24.8 °F 56% 30.34 in 10.0 mi North 20.7 mph - N/A   Clear
5:35 PM 39.2 °F 29.6 °F 24.8 °F 56% 30.33 in 10.0 mi North 19.6 mph 23.0 mph N/A   Clear
5:55 PM 39.2 °F 29.6 °F 24.8 °F 56% 30.33 in 10.0 mi North 19.6 mph 23.0 mph N/A   Clear
6:15 PM 37.4 °F 28.2 °F 24.8 °F 60% 30.33 in 10.0 mi North 16.1 mph 20.7 mph N/A   Clear
6:35 PM 37.4 °F 29.8 °F 24.8 °F 60% 30.33 in 10.0 mi North 11.5 mph - N/A   Clear
6:55 PM 37.4 °F 30.3 °F 24.8 °F 60% 30.33 in 10.0 mi North 10.4 mph - N/A   Clear
7:15 PM 37.4 °F 30.8 °F 24.8 °F 60% 30.32 in 10.0 mi North 9.2 mph - N/A   Clear
7:35 PM 37.4 °F 32.1 °F 24.8 °F 60% 30.32 in 10.0 mi North 6.9 mph - N/A   Clear
7:55 PM 37.4 °F 30.8 °F 24.8 °F 60% 30.32 in 10.0 mi North 9.2 mph - N/A   Clear
8:15 PM 37.4 °F 30.3 °F 24.8 °F 60% 30.32 in 10.0 mi NNW 10.4 mph - N/A   Clear
8:35 PM 35.6 °F 28.0 °F 24.8 °F 65% 30.32 in 10.0 mi NNW 10.4 mph - N/A   Clear
8:55 PM 35.6 °F 28.6 °F 24.8 °F 65% 30.32 in 10.0 mi NNW 9.2 mph - N/A   Clear
9:15 PM 33.8 °F 27.0 °F 24.8 °F 70% 30.32 in 10.0 mi NW 8.1 mph - N/A   Clear
9:35 PM 30.2 °F 22.6 °F 23.0 °F 75% 30.32 in 10.0 mi NNW 8.1 mph - N/A   Clear
10:15 PM 30.2 °F 24.3 °F 23.0 °F 75% 30.31 in 10.0 mi NW 5.8 mph - N/A   Clear
10:35 PM 28.4 °F 19.7 °F 23.0 °F 80% 30.31 in 10.0 mi NW 9.2 mph - N/A   Clear
10:55 PM 28.4 °F 21.2 °F 21.2 °F 74% 30.31 in 10.0 mi NW 6.9 mph - N/A   Clear
11:35 PM 28.4 °F 19.1 °F 23.0 °F 80% 30.30 in 10.0 mi NW 10.4 mph - N/A   Clear
11:55 PM 30.2 °F 21.3 °F 23.0 °F 75% 30.29 in 10.0 mi NW 10.4 mph - N/A   Clear